Location: Unspecified
(38.7273°N, 77.0677°W)
Time: 19:33:06
(UTC-04:00)

Hubble Space Telescope - Pass Details

Date: 12 June 2021
Orbit: 535 x 539 km, 28.5° (Epoch: 01 August)

Event Time Altitude Azimuth Distance (km) Brightness Sun altitude
Rises 22:06:39 0° 250° (WSW) 2,669 4.6 -14.9°
Reaches altitude 10° 22:10:18 10° 217° (SW) 1,778 3.3 -15.3°
Maximum altitude 22:11:44 12° 197° (SSW) 1,677 3.0 -15.5°
Enters shadow 22:11:47 12° 196° (SSW) 1,677 3.0 -15.5°
